Showing default

QIANFAN-105, 66047

Orbit data source: Space-Track

QIANFAN-105, 66047 is a Chinese payload satellite in LEO that was launched on Fri, 17 Oct 2025 UTC via a CHANG ZHENG 6A launch vehicle from the Taiyaun Space Center, China (TSC). Payload-class satellites include a variety of spacecraft equipped with specific instruments for various scientific and technological missions. These include communications satellites like Starlink; space stations such as the ISS; scientific satellites like the Hubble; Earth observation satellites from companies like Planet Labs, Umbra, and HawkEye 360; GPS; miniature CubeSats for education and research; and military/defense satellites.

Loading next visibility...
Identifier
66047, 2025-233Q
Orbit
LEO
Country
Flag of CNCN / PRC
Related business
Manufacturer
SECM
Mission
Operational Commercial Communications
Bus & Motor
QIANFAN, Unknown motor
Mass
267 kg wet, ~267 kg dry
Launch date (UTC)
2025-10-17 (7 months ago)
Launch vehicle
CHANG ZHENG 6A
Launch site
Taiyaun Space Center, China (TSC)
Object type
Payload
Rocket body
Debris
Shape & HBR
Box + 1 Pan, 14.5 m
Radar Cross Section
13.200 m²

Expand to show TLE details & history
Last TLE update: 7 hours ago

TLE from 7 hours ago
0 QIANFAN-105
1 66047U 25233Q   26130.20073145  .00000130  00000-0  18203-3 0  9993
2 66047  89.0044  46.7675 0002239  69.5597 290.5794 13.51005160 28213
Epoch: 2026-05-10T04:49Z
TLE epoch observation values (Epoch: 2026-05-10T04:49:03.197Z)
Latitude
-0.00005°
Longitude
106.49696°
Altitude
1,070.93 km
Speed
7.317 km/s
True Right ascension
03h 07m 04s
True Declination
0° 00' 00"
Sunlit
Object was in daylight at epoch
Visualization orbit readout
Latitude
Unknown
Longitude
Unknown
Altitude
Unknown
Speed
Unknown
Apparent Right ascension
Unknown
Apparent Declination
Unknown
Sunlit
N/A
Visualization observer readout
Local Sidereal Time
19:44:24
Azimuth
Unknown
Elevation
Unknown
Doppler factor
Unknown
Orbital elements
Apogee altitude
1,067.28 km
Perigee altitude
1,063.947 km
Semi-major axis
7,443.751 km
Eccentricity
0.00022
Inclination
89.0044°
RAAN
46.7675°
Arg. of periapsis
69.5597°
True anomaly
290.55538°
Mean anomaly
290.5794°
Eccentric anomaly
290.56739°
Mean motion
3.37952 °/min
Orbital period
106.52 mins
BSTAR
0.00018203
Loading maneuver chart data...
Computing Atmospheric mass density...
Loading historical data...
Loading historical data...
Loading historical data...
Loading historical data...
Loading historical data...
Loading historical data...
Loading historical data...

Documentation

Showing up to 5 results
|